SEH474 LGAV-LGPA

Flight info

Callsign SEH474
Flight time 0h 20m
Altitude 12000
Route KEA UL52 RAPOS
Aircraft AT45/M-SDFGIRY/S

Departure

Time 2026-05-05 15:51
Airport Athens Eleftherios Venizelos International Airport (LGAV)

Arrival

Time 2026-05-05 16:11
Airport Paros National Airport (LGPA)
Time Latitude Longitude Altitude Speed Heading
2026-05-05 15:31 37.94388 23.95323 279 ft 0 kts 37°
2026-05-05 15:40 37.94375 23.95309 279 ft 0 kts 33°
2026-05-05 15:41 37.94388 23.95323 279 ft 0 kts 37°
2026-05-05 15:45 37.94393 23.95329 279 ft 3 kts 49°
2026-05-05 15:45 37.94396 23.95339 279 ft 0 kts 75°
2026-05-05 15:47 37.94397 23.95342 280 ft 2 kts 77°
2026-05-05 15:47 37.94399 23.95358 280 ft 1 kts 77°
2026-05-05 15:47 37.94383 23.95420 283 ft 5 kts 124°
2026-05-05 15:47 37.94368 23.95448 288 ft 6 kts 124°
2026-05-05 15:48 37.94297 23.95566 291 ft 26 kts 131°
2026-05-05 15:48 37.94261 23.95695 295 ft 14 kts 57°
2026-05-05 15:48 37.94337 23.95829 299 ft 24 kts 59°
2026-05-05 15:48 37.94425 23.96020 303 ft 29 kts 38°
2026-05-05 15:49 37.94608 23.96192 302 ft 36 kts 38°
2026-05-05 15:49 37.94815 23.96398 306 ft 40 kts 35°
2026-05-05 15:49 37.95025 23.96592 310 ft 32 kts 38°
2026-05-05 15:49 37.95179 23.96743 310 ft 24 kts 35°
2026-05-05 15:50 37.95298 23.96857 311 ft 20 kts 41°
2026-05-05 15:50 37.95368 23.96974 309 ft 5 kts 99°
2026-05-05 15:50 37.95270 23.97015 310 ft 38 kts 182°
2026-05-05 15:50 37.94892 23.96733 311 ft 94 kts 214°
2026-05-05 15:51 37.94212 23.96117 464 ft 137 kts 213°
2026-05-05 15:51 37.93357 23.95450 937 ft 155 kts 214°
2026-05-05 15:51 37.92384 23.94680 1447 ft 176 kts 210°
2026-05-05 15:51 37.91255 23.93911 1968 ft 194 kts 209°
2026-05-05 15:52 37.90015 23.93095 2477 ft 210 kts 209°
2026-05-05 15:52 37.88677 23.92209 2982 ft 223 kts 209°
2026-05-05 15:52 37.87289 23.91280 3472 ft 232 kts 210°
2026-05-05 15:52 37.85838 23.90276 3971 ft 240 kts 210°
2026-05-05 15:53 37.84351 23.89242 4482 ft 248 kts 211°
2026-05-05 15:53 37.82822 23.88182 4976 ft 253 kts 211°
2026-05-05 15:53 37.81277 23.87109 5466 ft 257 kts 211°
2026-05-05 15:53 37.79712 23.86018 5956 ft 261 kts 211°
2026-05-05 15:54 37.78117 23.84909 6451 ft 264 kts 211°
2026-05-05 15:54 37.76418 23.84024 6939 ft 268 kts 189°
2026-05-05 15:54 37.74576 23.84313 7426 ft 271 kts 157°
2026-05-05 15:54 37.73117 23.85738 7923 ft 271 kts 125°
2026-05-05 15:55 37.72378 23.87903 8430 ft 265 kts 102°
2026-05-05 15:55 37.71900 23.90150 8946 ft 268 kts 103°
2026-05-05 15:55 37.71324 23.92367 9457 ft 271 kts 108°
2026-05-05 15:55 37.70558 23.94588 9993 ft 274 kts 114°
2026-05-05 15:56 37.69669 23.96737 10474 ft 277 kts 116°
2026-05-05 15:56 37.68742 23.98890 10953 ft 279 kts 116°
2026-05-05 15:56 37.67817 24.01018 11443 ft 281 kts 116°
2026-05-05 15:56 37.66875 24.03180 11923 ft 284 kts 115°
2026-05-05 15:57 37.65925 24.05431 11993 ft 299 kts 115°
2026-05-05 15:57 37.64932 24.07803 12018 ft 311 kts 115°
2026-05-05 15:57 37.63910 24.10248 12036 ft 317 kts 115°
2026-05-05 15:57 37.62881 24.12711 12040 ft 319 kts 115°
2026-05-05 15:58 37.61843 24.15193 12042 ft 319 kts 115°
2026-05-05 15:58 37.60808 24.17670 12045 ft 319 kts 115°
2026-05-05 15:58 37.59770 24.20144 12047 ft 319 kts 115°
2026-05-05 15:58 37.58734 24.22620 12048 ft 319 kts 115°
2026-05-05 15:59 37.57698 24.25085 12048 ft 319 kts 115°
2026-05-05 15:59 37.56661 24.27564 12050 ft 319 kts 115°
2026-05-05 15:59 37.55623 24.30011 12058 ft 320 kts 116°
2026-05-05 15:59 37.54496 24.32460 12046 ft 321 kts 118°
2026-05-05 16:00 37.53301 24.34837 12047 ft 321 kts 120°
2026-05-05 16:00 37.52090 24.37190 12045 ft 321 kts 120°
2026-05-05 16:00 37.50873 24.39555 12050 ft 321 kts 120°
2026-05-05 16:00 37.49685 24.41903 12050 ft 320 kts 119°
2026-05-05 16:01 37.48500 24.44269 12051 ft 321 kts 119°
2026-05-05 16:01 37.47306 24.46649 12051 ft 321 kts 119°
2026-05-05 16:01 37.46118 24.49024 12049 ft 321 kts 119°
2026-05-05 16:01 37.44924 24.51400 12046 ft 321 kts 119°
2026-05-05 16:02 37.43731 24.53779 12054 ft 321 kts 119°
2026-05-05 16:02 37.42540 24.56153 12056 ft 321 kts 119°
2026-05-05 16:02 37.41345 24.58527 12059 ft 322 kts 119°
2026-05-05 16:02 37.40147 24.60909 11795 ft 313 kts 119°
2026-05-05 16:03 37.39018 24.63138 11345 ft 300 kts 119°
2026-05-05 16:03 37.37907 24.65358 10978 ft 300 kts 119°
2026-05-05 16:03 37.36791 24.67572 10621 ft 301 kts 119°
2026-05-05 16:03 37.35683 24.69774 10264 ft 301 kts 119°
2026-05-05 16:04 37.34559 24.72000 9904 ft 300 kts 119°
2026-05-05 16:04 37.33456 24.74181 9520 ft 300 kts 119°
2026-05-05 16:04 37.32327 24.76417 9132 ft 299 kts 119°
2026-05-05 16:04 37.31212 24.78620 8757 ft 298 kts 119°
2026-05-05 16:05 37.30105 24.80809 8397 ft 296 kts 119°
2026-05-05 16:05 37.29009 24.82973 8034 ft 293 kts 119°
2026-05-05 16:05 37.27933 24.85103 7681 ft 291 kts 119°
2026-05-05 16:05 37.26834 24.87266 7322 ft 290 kts 119°
2026-05-05 16:06 37.25770 24.89368 6982 ft 289 kts 119°
2026-05-05 16:06 37.24700 24.91468 6590 ft 279 kts 119°
2026-05-05 16:06 37.23654 24.93542 6086 ft 283 kts 119°
2026-05-05 16:06 37.22596 24.95633 5651 ft 283 kts 120°
2026-05-05 16:07 37.21535 24.97713 5250 ft 282 kts 120°
2026-05-05 16:07 37.20477 24.99781 4865 ft 281 kts 120°
2026-05-05 16:07 37.19598 25.01504 4527 ft 280 kts 120°
2026-05-05 16:07 37.18577 25.03510 4156 ft 278 kts 121°
2026-05-05 16:08 37.17538 25.05551 3784 ft 277 kts 121°
2026-05-05 16:08 37.16502 25.07582 3413 ft 275 kts 122°
2026-05-05 16:08 37.15470 25.09597 3039 ft 274 kts 122°
2026-05-05 16:08 37.14433 25.11472 2613 ft 243 kts 134°
2026-05-05 16:09 37.13080 25.12482 2123 ft 216 kts 162°
2026-05-05 16:09 37.11707 25.13054 1652 ft 201 kts 166°
2026-05-05 16:09 37.10485 25.13418 1733 ft 172 kts 176°
2026-05-05 16:09 37.09251 25.13229 1623 ft 198 kts 196°
2026-05-05 16:10 37.08009 25.12678 1722 ft 180 kts 204°
2026-05-05 16:10 37.06863 25.12040 1468 ft 187 kts 208°
2026-05-05 16:10 37.05711 25.11374 1167 ft 176 kts 204°
2026-05-05 16:10 37.04652 25.11119 761 ft 147 kts 183°
2026-05-05 16:11 37.03665 25.11120 433 ft 139 kts 179°
2026-05-05 16:11 37.01804 25.11383 114 ft 0 kts 162°
2026-05-05 16:12 37.01800 25.11387 113 ft 1 kts 125°
2026-05-05 16:12 37.01864 25.11426 115 ft 14 kts 21°
2026-05-05 16:13 37.01983 25.11499 118 ft 5 kts 360°
2026-05-05 16:13 37.02021 25.11502 118 ft 6 kts 24°
2026-05-05 16:13 37.02035 25.11526 116 ft 2 kts 76°
2026-05-05 16:14 37.02045 25.11590 118 ft 4 kts 80°
2026-05-05 16:14 37.02047 25.11608 117 ft 0 kts 80°